Simultaneous Nadir Overpasses (SNOs) Predictions

Prediction of SNOs between NOAA-19 and TERRA Satellite Orbit:

Table of predicted SNOs for the next 14.0 days since TLE Epoch: 3/21/2015
Index Date (NOAA-19) Time (NOAA-19) Lat,Lon (NOAA-19) SZA (NOAA-19 ) Date (TERRA) Time (TERRA) Lat,Lon (TERRA) SZA (TERRA ) Distance(km) Time Diff (sec)
1 03/22/2015 08:04:04 -71.72,-117.90 108.93 03/22/2015 08:05:11 -71.73,-117.95 108.92 2.03 67
2 03/22/2015 08:55:03 71.62, 49.52 70.97 03/22/2015 08:54:38 71.64, 49.55 70.98 1.70 25
3 03/24/2015 13:38:32 71.70, -21.45 70.18 03/24/2015 13:38:55 71.72, -21.39 70.20 2.88 23
4 03/24/2015 14:29:32 -71.57, 146.04 109.97 03/24/2015 14:28:26 -71.55, 145.96 110.00 3.70 66
5 03/26/2015 18:22:01 71.79, -92.44 69.40 03/26/2015 18:23:12 71.77, -92.37 69.39 3.01 71
6 03/26/2015 19:13:02 -71.67, 75.01 110.73 03/26/2015 19:12:42 -71.66, 75.07 110.74 2.69 20
7 03/28/2015 23:56:31 -71.74, 4.06 111.52 03/28/2015 23:56:58 -71.74, 4.14 111.51 3.12 27
8 03/29/2015 00:47:27 71.58, 171.61 68.32 03/29/2015 00:46:26 71.59, 171.53 68.32 3.02 61
9 03/31/2015 04:40:02 -71.91, -67.10 112.20 03/31/2015 04:41:13 -71.86, -66.73 112.25 14.17 71
10 03/31/2015 05:30:56 71.68, 100.60 67.56 03/31/2015 05:30:41 71.70, 100.65 67.58 3.26 15
11 04/02/2015 10:14:24 71.73, 29.67 66.77 04/02/2015 10:14:57 71.73, 29.63 66.77 1.25 33
12 04/02/2015 11:05:27 -71.64,-162.94 113.34 04/02/2015 11:04:27 -71.62,-162.92 113.36 2.20 60
